Time,TemperatureF,DewpointF,PressureIn,WindDirection,WindDirectionDegrees,WindSpeedMPH,WindSpeedGustMPH,Humidity,HourlyPrecipIn,Conditions,Clouds,dailyrainin,SoftwareType,DateUTC
2013-08-14 00:01:00,53.8,46.5,29.97,West,274,1.0,2.0,76,0.00,,,0.00,WUHU216DAVISVP2,2013-08-14 04:01:00,
2013-08-14 00:06:00,53.8,46.5,29.97,WNW,289,0.0,2.0,76,0.00,,,0.00,WUHU216DAVISVP2,2013-08-14 04:06:00,
2013-08-14 00:11:00,53.7,46.7,29.97,West,274,0.0,1.0,77,0.00,,,0.00,WUHU216DAVISVP2,2013-08-14 04:11:00,
2013-08-14 00:16:00,53.6,46.6,29.97,West,277,1.0,1.0,77,0.00,,,0.00,WUHU216DAVISVP2,2013-08-14 04:16:00,
2013-08-14 00:21:00,53.5,46.9,29.97,West,277,0.0,1.0,78,0.00,,,0.00,WUHU216DAVISVP2,2013-08-14 04:21:00,
2013-08-14 00:26:00,53.4,46.8,29.97,West,276,0.0,1.0,78,0.00,,,0.00,WUHU216DAVISVP2,2013-08-14 04:26:00,
2013-08-14 00:31:00,53.2,46.6,29.97,West,277,0.0,1.0,78,0.00,,,0.00,WUHU216DAVISVP2,2013-08-14 04:31:00,
2013-08-14 00:36:00,53.0,46.7,29.97,West,278,0.0,1.0,79,0.00,,,0.00,WUHU216DAVISVP2,2013-08-14 04:36:00,
2013-08-14 00:41:00,52.9,46.6,29.97,WNW,294,0.0,2.0,79,0.00,,,0.00,WUHU216DAVISVP2,2013-08-14 04:41:00,
2013-08-14 00:46:00,52.9,46.6,29.97,North,356,0.0,2.0,79,0.00,,,0.00,WUHU216DAVISVP2,2013-08-14 04:46:00,
2013-08-14 00:51:00,52.8,46.5,29.97,North,8,0.0,2.0,79,0.00,,,0.00,WUHU216DAVISVP2,2013-08-14 04:51:00,
2013-08-14 00:56:00,52.6,46.3,29.98,West,281,0.0,2.0,79,0.00,,,0.00,WUHU216DAVISVP2,2013-08-14 04:56:00,
2013-08-14 01:01:00,52.5,46.5,29.98,West,281,0.0,2.0,80,0.00,,,0.00,WUHU216DAVISVP2,2013-08-14 05:01:00,
2013-08-14 01:06:00,52.3,46.3,29.98,WNW,283,0.0,1.0,80,0.00,,,0.00,WUHU216DAVISVP2,2013-08-14 05:06:00,
2013-08-14 01:11:00,52.2,46.5,29.98,NNW,346,1.0,1.0,81,0.00,,,0.00,WUHU216DAVISVP2,2013-08-14 05:11:00,
2013-08-14 01:16:00,52.1,46.4,29.98,NW,306,0.0,1.0,81,0.00,,,0.00,WUHU216DAVISVP2,2013-08-14 05:16:00,
2013-08-14 01:21:00,52.0,46.3,29.98,WNW,283,0.0,1.0,81,0.00,,,0.00,WUHU216DAVISVP2,2013-08-14 05:21:00,
2013-08-14 01:26:00,52.0,46.3,29.98,WNW,284,1.0,1.0,81,0.00,,,0.00,WUHU216DAVISVP2,2013-08-14 05:26:00,
2013-08-14 01:31:00,52.0,46.3,29.98,West,277,1.0,2.0,81,0.00,,,0.00,WUHU216DAVISVP2,2013-08-14 05:31:00,
2013-08-14 01:36:00,52.0,46.4,29.98,West,278,0.0,2.0,81,0.00,,,0.00,WUHU216DAVISVP2,2013-08-14 05:36:00,
2013-08-14 01:41:00,51.9,46.3,29.98,West,281,0.0,2.0,81,0.00,,,0.00,WUHU216DAVISVP2,2013-08-14 05:41:00,
2013-08-14 01:47:00,51.8,46.5,29.98,West,280,0.0,1.0,82,0.00,,,0.00,WUHU216DAVISVP2,2013-08-14 05:47:00,
2013-08-14 01:52:00,51.7,46.4,29.98,West,276,1.0,1.0,82,0.00,,,0.00,WUHU216DAVISVP2,2013-08-14 05:52:00,
2013-08-14 01:57:00,51.7,46.4,29.98,WNW,287,0.0,1.0,82,0.00,,,0.00,WUHU216DAVISVP2,2013-08-14 05:57:00,
2013-08-14 02:02:00,51.6,46.3,29.98,WNW,287,0.0,1.0,82,0.00,,,0.00,WUHU216DAVISVP2,2013-08-14 06:02:00,
2013-08-14 02:07:00,51.4,46.1,29.99,WNW,288,0.0,1.0,82,0.00,,,0.00,WUHU216DAVISVP2,2013-08-14 06:07:00,
2013-08-14 02:12:00,51.5,46.2,29.99,West,281,1.0,2.0,82,0.00,,,0.00,WUHU216DAVISVP2,2013-08-14 06:12:00,
2013-08-14 02:17:00,51.4,46.1,29.99,WNW,290,0.0,2.0,82,0.00,,,0.00,WUHU216DAVISVP2,2013-08-14 06:17:00,
2013-08-14 02:22:00,51.4,46.1,29.99,WNW,287,0.0,2.0,82,0.00,,,0.00,WUHU216DAVISVP2,2013-08-14 06:22:00,
2013-08-14 02:27:00,51.3,46.0,29.98,WNW,295,0.0,2.0,82,0.00,,,0.00,WUHU216DAVISVP2,2013-08-14 06:27:00,
2013-08-14 02:32:00,51.2,46.2,29.98,WNW,288,1.0,2.0,83,0.00,,,0.00,WUHU216DAVISVP2,2013-08-14 06:32:00,
2013-08-14 02:37:00,51.1,45.8,29.98,WNW,288,0.0,2.0,82,0.00,,,0.00,WUHU216DAVISVP2,2013-08-14 06:37:00,
2013-08-14 02:42:00,51.0,46.0,29.98,WNW,296,0.0,1.0,83,0.00,,,0.00,WUHU216DAVISVP2,2013-08-14 06:42:00,
2013-08-14 02:47:00,50.8,45.8,29.99,WNW,296,0.0,1.0,83,0.00,,,0.00,WUHU216DAVISVP2,2013-08-14 06:47:00,
2013-08-14 02:52:00,50.7,46.0,29.99,WNW,288,1.0,1.0,84,0.00,,,0.00,WUHU216DAVISVP2,2013-08-14 06:52:00,
2013-08-14 02:57:00,50.7,46.0,29.99,WNW,295,0.0,1.0,84,0.00,,,0.00,WUHU216DAVISVP2,2013-08-14 06:57:00,
2013-08-14 03:02:00,50.6,45.9,29.99,NW,319,0.0,1.0,84,0.00,,,0.00,WUHU216DAVISVP2,2013-08-14 07:02:00,
2013-08-14 03:07:00,50.5,45.8,29.99,WNW,298,0.0,1.0,84,0.00,,,0.00,WUHU216DAVISVP2,2013-08-14 07:07:00,
2013-08-14 03:12:00,50.5,45.8,29.99,WNW,302,0.0,3.0,84,0.00,,,0.00,WUHU216DAVISVP2,2013-08-14 07:12:00,
2013-08-14 03:17:00,50.5,45.8,29.99,WNW,297,2.0,3.0,84,0.00,,,0.00,WUHU216DAVISVP2,2013-08-14 07:17:00,
2013-08-14 03:22:00,50.6,45.9,29.99,WNW,290,0.0,3.0,84,0.00,,,0.00,WUHU216DAVISVP2,2013-08-14 07:22:00,
2013-08-14 03:27:00,50.6,45.9,29.99,West,270,0.0,2.0,84,0.00,,,0.00,WUHU216DAVISVP2,2013-08-14 07:27:00,
2013-08-14 03:32:00,50.6,45.9,29.99,WNW,285,0.0,2.0,84,0.00,,,0.00,WUHU216DAVISVP2,2013-08-14 07:32:00,
2013-08-14 03:37:00,50.5,45.8,29.99,NW,316,0.0,2.0,84,0.00,,,0.00,WUHU216DAVISVP2,2013-08-14 07:37:00,
2013-08-14 03:42:00,50.4,45.7,29.99,NW,321,0.0,2.0,84,0.00,,,0.00,WUHU216DAVISVP2,2013-08-14 07:42:00,
2013-08-14 03:47:00,50.2,45.9,30.00,NW,308,0.0,2.0,85,0.00,,,0.00,WUHU216DAVISVP2,2013-08-14 07:47:00,
2013-08-14 03:52:00,50.2,45.9,30.00,NW,306,0.0,1.0,85,0.00,,,0.00,WUHU216DAVISVP2,2013-08-14 07:52:00,
2013-08-14 03:57:00,50.1,45.8,30.00,WNW,289,0.0,1.0,85,0.00,,,0.00,WUHU216DAVISVP2,2013-08-14 07:57:00,
2013-08-14 04:02:00,50.1,45.8,30.00,WNW,291,0.0,2.0,85,0.00,,,0.00,WUHU216DAVISVP2,2013-08-14 08:02:00,
2013-08-14 04:07:00,50.0,45.7,29.99,WNW,283,0.0,2.0,85,0.00,,,0.00,WUHU216DAVISVP2,2013-08-14 08:07:00,
2013-08-14 04:12:00,49.9,45.9,29.99,WNW,290,0.0,2.0,86,0.00,,,0.00,WUHU216DAVISVP2,2013-08-14 08:12:00,
2013-08-14 04:17:00,49.8,45.8,30.00,NNW,339,0.0,1.0,86,0.00,,,0.00,WUHU216DAVISVP2,2013-08-14 08:17:00,
2013-08-14 04:22:00,49.8,45.8,30.00,NNW,339,0.0,1.0,86,0.00,,,0.00,WUHU216DAVISVP2,2013-08-14 08:22:00,
2013-08-14 04:27:00,49.7,45.7,30.00,WNW,294,0.0,1.0,86,0.00,,,0.00,WUHU216DAVISVP2,2013-08-14 08:27:00,
2013-08-14 04:32:00,49.7,46.0,30.00,West,281,0.0,1.0,87,0.00,,,0.00,WUHU216DAVISVP2,2013-08-14 08:32:00,
2013-08-14 04:37:00,49.6,45.9,30.00,WNW,283,0.0,1.0,87,0.00,,,0.00,WUHU216DAVISVP2,2013-08-14 08:37:00,
2013-08-14 04:42:00,49.5,45.8,30.00,WNW,287,0.0,1.0,87,0.00,,,0.00,WUHU216DAVISVP2,2013-08-14 08:42:00,
2013-08-14 04:47:00,49.5,45.8,30.00,West,273,0.0,1.0,87,0.00,,,0.00,WUHU216DAVISVP2,2013-08-14 08:47:00,
2013-08-14 04:52:00,49.4,46.0,30.00,WNW,299,0.0,2.0,88,0.00,,,0.00,WUHU216DAVISVP2,2013-08-14 08:52:00,
2013-08-14 04:57:00,49.4,46.0,30.00,WNW,296,0.0,2.0,88,0.00,,,0.00,WUHU216DAVISVP2,2013-08-14 08:57:00,
2013-08-14 05:02:00,49.3,45.9,30.00,WNW,289,1.0,2.0,88,0.00,,,0.00,WUHU216DAVISVP2,2013-08-14 09:02:00,
2013-08-14 05:07:00,49.3,45.9,30.00,WNW,294,1.0,2.0,88,0.00,,,0.00,WUHU216DAVISVP2,2013-08-14 09:07:00,
2013-08-14 05:12:00,49.2,45.8,30.00,WNW,285,0.0,2.0,88,0.00,,,0.00,WUHU216DAVISVP2,2013-08-14 09:12:00,
2013-08-14 05:17:00,49.2,46.1,30.00,North,354,2.0,2.0,89,0.00,,,0.00,WUHU216DAVISVP2,2013-08-14 09:17:00,
2013-08-14 05:22:00,49.2,46.1,30.00,West,281,1.0,2.0,89,0.00,,,0.00,WUHU216DAVISVP2,2013-08-14 09:22:00,
2013-08-14 05:27:00,49.2,46.1,30.00,NNW,340,0.0,3.0,89,0.00,,,0.00,WUHU216DAVISVP2,2013-08-14 09:27:00,
2013-08-14 05:32:00,49.2,46.1,30.00,WNW,293,1.0,3.0,89,0.00,,,0.00,WUHU216DAVISVP2,2013-08-14 09:32:00,
2013-08-14 05:37:00,49.2,46.1,30.00,WNW,287,1.0,3.0,89,0.00,,,0.00,WUHU216DAVISVP2,2013-08-14 09:37:00,
2013-08-14 05:42:00,49.2,46.1,30.00,WNW,285,1.0,3.0,89,0.00,,,0.00,WUHU216DAVISVP2,2013-08-14 09:42:00,
2013-08-14 05:47:00,49.2,46.1,30.00,WNW,290,0.0,3.0,89,0.00,,,0.00,WUHU216DAVISVP2,2013-08-14 09:47:00,
2013-08-14 05:52:00,49.1,46.0,30.01,WNW,296,0.0,3.0,89,0.00,,,0.00,WUHU216DAVISVP2,2013-08-14 09:52:00,
2013-08-14 05:57:00,49.1,46.0,30.00,WNW,295,0.0,3.0,89,0.00,,,0.00,WUHU216DAVISVP2,2013-08-14 09:57:00,
2013-08-14 06:02:00,49.1,46.3,30.01,West,271,1.0,3.0,90,0.00,,,0.00,WUHU216DAVISVP2,2013-08-14 10:02:00,
2013-08-14 06:07:00,49.0,46.2,30.01,WNW,289,0.0,2.0,90,0.00,,,0.00,WUHU216DAVISVP2,2013-08-14 10:07:00,
2013-08-14 06:12:00,49.0,46.2,30.02,WNW,283,0.0,2.0,90,0.00,,,0.00,WUHU216DAVISVP2,2013-08-14 10:12:00,
2013-08-14 06:17:00,49.0,46.2,30.01,WNW,287,1.0,2.0,90,0.00,,,0.00,WUHU216DAVISVP2,2013-08-14 10:17:00,
2013-08-14 06:22:00,49.0,46.2,30.02,NW,314,0.0,4.0,90,0.00,,,0.00,WUHU216DAVISVP2,2013-08-14 10:22:00,
2013-08-14 06:27:00,48.9,46.1,30.01,West,276,0.0,4.0,90,0.00,,,0.00,WUHU216DAVISVP2,2013-08-14 10:27:00,
2013-08-14 06:32:00,49.0,46.2,30.02,WNW,291,1.0,3.0,90,0.00,,,0.00,WUHU216DAVISVP2,2013-08-14 10:32:00,
2013-08-14 06:37:00,48.9,46.3,30.02,WNW,292,0.0,3.0,91,0.00,,,0.00,WUHU216DAVISVP2,2013-08-14 10:37:00,
2013-08-14 06:42:00,48.9,46.3,30.02,NNW,329,1.0,3.0,91,0.00,,,0.00,WUHU216DAVISVP2,2013-08-14 10:42:00,
2013-08-14 06:47:00,48.9,46.3,30.03,ENE,68,0.0,2.0,91,0.00,,,0.00,WUHU216DAVISVP2,2013-08-14 10:47:00,
2013-08-14 06:52:00,48.7,46.1,30.03,NW,323,0.0,2.0,91,0.00,,,0.00,WUHU216DAVISVP2,2013-08-14 10:52:00,
2013-08-14 06:57:00,48.7,46.1,30.03,NW,313,0.0,2.0,91,0.00,,,0.00,WUHU216DAVISVP2,2013-08-14 10:57:00,
2013-08-14 07:02:00,48.6,46.3,30.03,NW,313,0.0,1.0,92,0.00,,,0.00,WUHU216DAVISVP2,2013-08-14 11:02:00,
2013-08-14 07:07:00,48.6,46.3,30.03,West,273,1.0,1.0,92,0.00,,,0.00,WUHU216DAVISVP2,2013-08-14 11:07:00,
2013-08-14 07:12:00,48.7,46.4,30.04,NW,311,1.0,2.0,92,0.00,,,0.00,WUHU216DAVISVP2,2013-08-14 11:12:00,
2013-08-14 07:17:00,48.8,46.5,30.04,NW,304,1.0,2.0,92,0.00,,,0.00,WUHU216DAVISVP2,2013-08-14 11:17:00,
2013-08-14 07:22:00,48.9,46.3,30.04,WNW,293,0.0,2.0,91,0.00,,,0.00,WUHU216DAVISVP2,2013-08-14 11:22:00,
2013-08-14 07:27:00,48.9,46.6,30.04,WNW,300,0.0,2.0,92,0.00,,,0.00,WUHU216DAVISVP2,2013-08-14 11:27:00,
2013-08-14 07:32:00,49.1,46.6,30.04,WNW,297,1.0,4.0,91,0.00,,,0.00,WUHU216DAVISVP2,2013-08-14 11:32:00,
2013-08-14 07:37:00,49.3,46.8,30.05,WNW,296,0.0,4.0,91,0.00,,,0.00,WUHU216DAVISVP2,2013-08-14 11:37:00,
2013-08-14 07:42:00,49.5,46.9,30.05,NW,311,0.0,4.0,91,0.00,,,0.00,WUHU216DAVISVP2,2013-08-14 11:42:00,
2013-08-14 07:47:00,49.6,47.0,30.05,NNW,338,1.0,4.0,91,0.00,,,0.00,WUHU216DAVISVP2,2013-08-14 11:47:00,
2013-08-14 07:52:00,49.9,47.3,30.05,WNW,298,1.0,3.0,91,0.00,,,0.00,WUHU216DAVISVP2,2013-08-14 11:52:00,
2013-08-14 07:57:00,50.1,47.2,30.05,WNW,296,2.0,3.0,90,0.00,,,0.00,WUHU216DAVISVP2,2013-08-14 11:57:00,
2013-08-14 08:02:00,50.3,47.4,30.05,WSW,257,0.0,3.0,90,0.00,,,0.00,WUHU216DAVISVP2,2013-08-14 12:02:00,
2013-08-14 08:07:00,50.5,47.6,30.06,NW,314,0.0,3.0,90,0.00,,,0.00,WUHU216DAVISVP2,2013-08-14 12:07:00,
2013-08-14 08:12:00,50.8,47.9,30.06,WNW,289,1.0,3.0,90,0.00,,,0.00,WUHU216DAVISVP2,2013-08-14 12:12:00,
2013-08-14 08:17:00,51.0,47.8,30.06,NNE,24,1.0,3.0,89,0.00,,,0.00,WUHU216DAVISVP2,2013-08-14 12:17:00,
2013-08-14 08:22:00,51.2,48.0,30.06,NW,326,1.0,3.0,89,0.00,,,0.00,WUHU216DAVISVP2,2013-08-14 12:22:00,
2013-08-14 08:27:00,51.5,48.3,30.06,WNW,297,3.0,3.0,89,0.00,,,0.00,WUHU216DAVISVP2,2013-08-14 12:27:00,
2013-08-14 08:32:00,51.9,48.7,30.06,NE,51,2.0,4.0,89,0.00,,,0.00,WUHU216DAVISVP2,2013-08-14 12:32:00,
2013-08-14 08:37:00,52.3,49.2,30.06,NNW,333,2.0,5.0,89,0.00,,,0.00,WUHU216DAVISVP2,2013-08-14 12:37:00,
2013-08-14 08:42:00,52.8,49.3,30.07,North,354,2.0,5.0,88,0.00,,,0.00,WUHU216DAVISVP2,2013-08-14 12:42:00,
2013-08-14 08:47:00,53.2,49.4,30.06,NW,304,0.0,5.0,87,0.00,,,0.00,WUHU216DAVISVP2,2013-08-14 12:47:00,
2013-08-14 08:52:00,53.6,49.8,30.07,WNW,300,0.0,5.0,87,0.00,,,0.00,WUHU216DAVISVP2,2013-08-14 12:52:00,
2013-08-14 08:57:00,53.9,50.1,30.07,NW,311,1.0,4.0,87,0.00,,,0.00,WUHU216DAVISVP2,2013-08-14 12:57:00,
2013-08-14 09:02:00,54.3,50.2,30.07,ESE,117,0.0,4.0,86,0.00,,,0.00,WUHU216DAVISVP2,2013-08-14 13:02:00,
2013-08-14 09:07:00,54.7,50.6,30.07,West,267,1.0,3.0,86,0.00,,,0.00,WUHU216DAVISVP2,2013-08-14 13:07:00,
2013-08-14 09:12:00,55.1,51.0,30.07,West,271,2.0,4.0,86,0.00,,,0.00,WUHU216DAVISVP2,2013-08-14 13:12:00,
2013-08-14 09:17:00,55.5,51.1,30.07,NW,311,1.0,7.0,85,0.00,,,0.00,WUHU216DAVISVP2,2013-08-14 13:17:00,
2013-08-14 09:22:00,55.9,51.5,30.07,North,11,3.0,7.0,85,0.00,,,0.00,WUHU216DAVISVP2,2013-08-14 13:22:00,
2013-08-14 09:27:00,56.2,51.4,30.07,West,262,2.0,6.0,84,0.00,,,0.00,WUHU216DAVISVP2,2013-08-14 13:27:00,
2013-08-14 09:32:00,56.5,51.4,30.07,NW,318,1.0,7.0,83,0.00,,,0.00,WUHU216DAVISVP2,2013-08-14 13:32:00,
2013-08-14 09:37:00,56.9,51.8,30.07,WNW,285,1.0,8.0,83,0.00,,,0.00,WUHU216DAVISVP2,2013-08-14 13:37:00,
2013-08-14 09:42:00,57.4,51.7,30.07,West,278,0.0,8.0,81,0.00,,,0.00,WUHU216DAVISVP2,2013-08-14 13:42:00,
2013-08-14 09:47:00,57.9,52.1,30.07,WNW,283,2.0,7.0,81,0.00,,,0.00,WUHU216DAVISVP2,2013-08-14 13:47:00,
2013-08-14 09:52:00,58.4,52.0,30.07,NW,311,1.0,7.0,79,0.00,,,0.00,WUHU216DAVISVP2,2013-08-14 13:52:00,
2013-08-14 09:57:00,58.5,51.7,30.07,NE,54,7.0,7.0,78,0.00,,,0.00,WUHU216DAVISVP2,2013-08-14 13:57:00,
2013-08-14 10:02:00,58.6,51.8,30.07,NNE,30,2.0,11.0,78,0.00,,,0.00,WUHU216DAVISVP2,2013-08-14 14:02:00,
2013-08-14 10:07:00,58.8,52.0,30.07,NE,43,4.0,11.0,78,0.00,,,0.00,WUHU216DAVISVP2,2013-08-14 14:07:00,
2013-08-14 10:12:00,59.1,51.6,30.07,NNW,342,5.0,11.0,76,0.00,,,0.00,WUHU216DAVISVP2,2013-08-14 14:12:00,
2013-08-14 10:17:00,59.5,52.7,30.07,NE,49,6.0,11.0,78,0.00,,,0.00,WUHU216DAVISVP2,2013-08-14 14:17:00,
2013-08-14 10:22:00,60.0,52.9,30.08,WNW,297,1.0,7.0,77,0.00,,,0.00,WUHU216DAVISVP2,2013-08-14 14:22:00,
2013-08-14 10:27:00,60.3,52.4,30.08,NNE,22,1.0,7.0,75,0.00,,,0.00,WUHU216DAVISVP2,2013-08-14 14:27:00,
2013-08-14 10:32:00,60.8,52.6,30.08,NE,37,3.0,7.0,74,0.00,,,0.00,WUHU216DAVISVP2,2013-08-14 14:32:00,
2013-08-14 10:37:00,61.4,53.0,30.08,NE,36,2.0,6.0,74,0.00,,,0.00,WUHU216DAVISVP2,2013-08-14 14:37:00,
2013-08-14 10:42:00,61.1,52.5,30.08,ENE,60,1.0,6.0,73,0.00,,,0.00,WUHU216DAVISVP2,2013-08-14 14:42:00,
2013-08-14 10:47:00,60.5,51.4,30.08,NE,49,4.0,10.0,72,0.00,,,0.00,WUHU216DAVISVP2,2013-08-14 14:47:00,
2013-08-14 10:52:00,60.8,51.7,30.08,NE,49,6.0,10.0,72,0.00,,,0.00,WUHU216DAVISVP2,2013-08-14 14:52:00,
2013-08-14 10:57:00,61.4,51.5,30.08,NW,305,3.0,9.0,70,0.00,,,0.00,WUHU216DAVISVP2,2013-08-14 14:57:00,
2013-08-14 11:02:00,61.9,51.6,30.08,NNE,13,2.0,9.0,69,0.00,,,0.00,WUHU216DAVISVP2,2013-08-14 15:02:00,
2013-08-14 11:07:00,62.4,52.1,30.08,West,265,1.0,6.0,69,0.00,,,0.00,WUHU216DAVISVP2,2013-08-14 15:07:00,
2013-08-14 11:12:00,63.2,52.5,30.08,NNE,30,1.0,5.0,68,0.00,,,0.00,WUHU216DAVISVP2,2013-08-14 15:12:00,
2013-08-14 11:17:00,63.5,51.9,30.08,NW,304,2.0,6.0,66,0.00,,,0.00,WUHU216DAVISVP2,2013-08-14 15:17:00,
2013-08-14 11:22:00,63.3,51.9,30.08,NNW,338,2.0,6.0,66,0.00,,,0.00,WUHU216DAVISVP2,2013-08-14 15:22:00,
2013-08-14 11:27:00,62.9,51.9,30.08,NE,51,6.0,8.0,67,0.00,,,0.00,WUHU216DAVISVP2,2013-08-14 15:27:00,
2013-08-14 11:32:00,62.7,51.3,30.08,North,8,7.0,8.0,66,0.00,,,0.00,WUHU216DAVISVP2,2013-08-14 15:32:00,
2013-08-14 11:37:00,63.2,52.2,30.08,ENE,63,6.0,8.0,67,0.00,,,0.00,WUHU216DAVISVP2,2013-08-14 15:37:00,
2013-08-14 11:42:00,63.6,51.8,30.08,NE,51,1.0,8.0,65,0.00,,,0.00,WUHU216DAVISVP2,2013-08-14 15:42:00,
2013-08-14 11:47:00,64.1,51.4,30.08,NNE,22,4.0,7.0,63,0.00,,,0.00,WUHU216DAVISVP2,2013-08-14 15:47:00,
2013-08-14 11:54:00,63.9,51.2,30.08,ENE,66,2.0,7.0,63,0.00,,,0.00,WUHU216DAVISVP2,2013-08-14 15:54:00,
2013-08-14 11:59:00,64.5,52.2,30.08,WNW,284,1.0,7.0,64,0.00,,,0.00,WUHU216DAVISVP2,2013-08-14 15:59:00,
2013-08-14 12:04:00,64.7,51.1,30.08,West,281,2.0,7.0,61,0.00,,,0.00,WUHU216DAVISVP2,2013-08-14 16:04:00,
2013-08-14 12:09:00,64.0,51.3,30.09,North,349,1.0,5.0,63,0.00,,,0.00,WUHU216DAVISVP2,2013-08-14 16:09:00,
2013-08-14 12:14:00,64.1,51.4,30.08,ENE,68,1.0,6.0,63,0.00,,,0.00,WUHU216DAVISVP2,2013-08-14 16:14:00,
2013-08-14 12:19:00,64.3,50.7,30.09,SW,214,1.0,9.0,61,0.00,,,0.00,WUHU216DAVISVP2,2013-08-14 16:19:00,
2013-08-14 12:24:00,64.5,50.5,30.09,NW,312,1.0,9.0,60,0.00,,,0.00,WUHU216DAVISVP2,2013-08-14 16:24:00,
2013-08-14 12:29:00,65.3,50.8,30.08,NNE,15,6.0,10.0,59,0.00,,,0.00,WUHU216DAVISVP2,2013-08-14 16:29:00,
2013-08-14 12:34:00,65.1,53.2,30.08,WNW,283,4.0,10.0,65,0.00,,,0.00,WUHU216DAVISVP2,2013-08-14 16:34:00,
2013-08-14 12:39:00,65.4,51.3,30.09,NE,43,3.0,8.0,60,0.00,,,0.00,WUHU216DAVISVP2,2013-08-14 16:39:00,
2013-08-14 12:44:00,65.6,51.5,30.09,NNE,24,3.0,8.0,60,0.00,,,0.00,WUHU216DAVISVP2,2013-08-14 16:44:00,
2013-08-14 12:49:00,65.7,50.7,30.09,NW,305,1.0,6.0,58,0.00,,,0.00,WUHU216DAVISVP2,2013-08-14 16:49:00,
2013-08-14 12:55:00,65.8,51.7,30.09,NE,39,4.0,6.0,60,0.00,,,0.00,WUHU216DAVISVP2,2013-08-14 16:55:00,
2013-08-14 13:00:00,66.0,51.7,30.08,WNW,301,1.0,6.0,60,0.00,,,0.00,WUHU216DAVISVP2,2013-08-14 17:00:00,
2013-08-14 13:05:00,66.6,51.4,30.08,NNE,25,3.0,7.0,58,0.00,,,0.00,WUHU216DAVISVP2,2013-08-14 17:05:00,
2013-08-14 13:10:00,66.6,52.0,30.08,West,274,4.0,7.0,59,0.00,,,0.00,WUHU216DAVISVP2,2013-08-14 17:10:00,
2013-08-14 13:15:00,66.7,51.1,30.08,West,266,1.0,7.0,57,0.00,,,0.00,WUHU216DAVISVP2,2013-08-14 17:15:00,
2013-08-14 13:20:00,66.1,51.0,30.08,WNW,283,1.0,7.0,58,0.00,,,0.00,WUHU216DAVISVP2,2013-08-14 17:20:00,
2013-08-14 13:25:00,66.5,50.9,30.08,West,262,3.0,7.0,57,0.00,,,0.00,WUHU216DAVISVP2,2013-08-14 17:25:00,
2013-08-14 13:30:00,66.4,51.3,30.08,WNW,299,3.0,5.0,58,0.00,,,0.00,WUHU216DAVISVP2,2013-08-14 17:30:00,
2013-08-14 13:35:00,66.4,51.8,30.09,NW,315,2.0,5.0,59,0.00,,,0.00,WUHU216DAVISVP2,2013-08-14 17:35:00,
2013-08-14 13:40:00,65.7,51.1,30.08,NNE,22,4.0,7.0,59,0.00,,,0.00,WUHU216DAVISVP2,2013-08-14 17:40:00,
2013-08-14 13:45:00,65.7,52.0,30.08,WNW,298,2.0,7.0,61,0.00,,,0.00,WUHU216DAVISVP2,2013-08-14 17:45:00,
2013-08-14 13:51:00,66.7,53.0,30.08,North,10,0.0,7.0,61,0.00,,,0.00,WUHU216DAVISVP2,2013-08-14 17:51:00,
2013-08-14 13:56:00,67.4,53.7,30.08,West,273,2.0,6.0,61,0.00,,,0.00,WUHU216DAVISVP2,2013-08-14 17:56:00,
2013-08-14 14:01:00,67.7,52.1,30.08,West,281,4.0,5.0,57,0.00,,,0.00,WUHU216DAVISVP2,2013-08-14 18:01:00,
2013-08-14 14:06:00,68.4,52.7,30.08,NW,314,1.0,5.0,57,0.00,,,0.00,WUHU216DAVISVP2,2013-08-14 18:06:00,
2013-08-14 14:11:00,67.9,52.2,30.08,North,4,4.0,5.0,57,0.00,,,0.00,WUHU216DAVISVP2,2013-08-14 18:11:00,
2013-08-14 14:16:00,67.0,52.4,30.08,WNW,285,1.0,5.0,59,0.00,,,0.00,WUHU216DAVISVP2,2013-08-14 18:16:00,
2013-08-14 14:21:00,66.7,51.9,30.08,WNW,294,1.0,5.0,59,0.00,,,0.00,WUHU216DAVISVP2,2013-08-14 18:21:00,
2013-08-14 14:27:00,66.7,51.9,30.08,NW,321,1.0,4.0,59,0.00,,,0.00,WUHU216DAVISVP2,2013-08-14 18:27:00,
2013-08-14 14:32:00,67.5,53.6,30.07,ENE,63,1.0,5.0,61,0.00,,,0.00,WUHU216DAVISVP2,2013-08-14 18:32:00,
2013-08-14 14:37:00,67.9,52.1,30.07,NNE,25,2.0,5.0,57,0.00,,,0.00,WUHU216DAVISVP2,2013-08-14 18:37:00,
2013-08-14 14:42:00,67.7,51.6,30.07,NE,44,4.0,7.0,56,0.00,,,0.00,WUHU216DAVISVP2,2013-08-14 18:42:00,
2013-08-14 14:47:00,67.1,52.7,30.07,NNW,346,1.0,7.0,60,0.00,,,0.00,WUHU216DAVISVP2,2013-08-14 18:47:00,
2013-08-14 14:52:00,67.3,51.7,30.07,NE,49,4.0,6.0,57,0.00,,,0.00,WUHU216DAVISVP2,2013-08-14 18:52:00,
2013-08-14 14:58:00,67.1,51.0,30.07,NNE,30,1.0,6.0,56,0.00,,,0.00,WUHU216DAVISVP2,2013-08-14 18:58:00,
2013-08-14 15:03:00,67.0,50.4,30.07,North,9,1.0,6.0,55,0.00,,,0.00,WUHU216DAVISVP2,2013-08-14 19:03:00,
2013-08-14 15:07:00,66.4,51.8,30.07,NNW,342,0.0,6.0,59,0.00,,,0.00,WUHU216DAVISVP2,2013-08-14 19:07:00,
2013-08-14 15:12:00,66.2,51.6,30.07,West,278,1.0,6.0,59,0.00,,,0.00,WUHU216DAVISVP2,2013-08-14 19:12:00,
2013-08-14 15:18:00,66.8,50.2,30.07,West,270,1.0,6.0,55,0.00,,,0.00,WUHU216DAVISVP2,2013-08-14 19:18:00,
2013-08-14 15:23:00,67.3,51.2,30.07,WSW,258,2.0,6.0,56,0.00,,,0.00,WUHU216DAVISVP2,2013-08-14 19:23:00,
2013-08-14 15:28:00,67.6,50.5,30.07,North,360,1.0,4.0,54,0.00,,,0.00,WUHU216DAVISVP2,2013-08-14 19:28:00,
2013-08-14 15:33:00,68.4,53.2,30.06,NW,305,2.0,5.0,58,0.00,,,0.00,WUHU216DAVISVP2,2013-08-14 19:33:00,
2013-08-14 15:38:00,68.6,51.9,30.06,NNE,17,2.0,5.0,55,0.00,,,0.00,WUHU216DAVISVP2,2013-08-14 19:38:00,
2013-08-14 15:44:00,68.8,51.1,30.06,WSW,253,1.0,5.0,53,0.00,,,0.00,WUHU216DAVISVP2,2013-08-14 19:44:00,
2013-08-14 15:49:00,68.6,50.4,30.06,WSW,253,2.0,5.0,52,0.00,,,0.00,WUHU216DAVISVP2,2013-08-14 19:49:00,
2013-08-14 15:54:00,68.3,51.1,30.06,West,262,2.0,5.0,54,0.00,,,0.00,WUHU216DAVISVP2,2013-08-14 19:54:00,
2013-08-14 15:59:00,68.2,51.5,30.06,NW,307,0.0,4.0,55,0.00,,,0.00,WUHU216DAVISVP2,2013-08-14 19:59:00,
2013-08-14 16:04:00,68.0,50.8,30.06,NE,44,0.0,4.0,54,0.00,,,0.00,WUHU216DAVISVP2,2013-08-14 20:04:00,
2013-08-14 16:09:00,67.5,50.4,30.06,NNW,344,3.0,7.0,54,0.00,,,0.00,WUHU216DAVISVP2,2013-08-14 20:09:00,
2013-08-14 16:14:00,66.7,50.6,30.06,East,89,0.0,7.0,56,0.00,,,0.00,WUHU216DAVISVP2,2013-08-14 20:14:00,
2013-08-14 16:21:00,66.5,50.9,30.06,East,81,0.0,6.0,57,0.00,,,0.00,WUHU216DAVISVP2,2013-08-14 20:21:00,
2013-08-14 16:26:00,67.0,51.4,30.06,WNW,288,1.0,6.0,57,0.00,,,0.00,WUHU216DAVISVP2,2013-08-14 20:26:00,
2013-08-14 16:31:00,67.7,51.1,30.06,WNW,285,1.0,3.0,55,0.00,,,0.00,WUHU216DAVISVP2,2013-08-14 20:31:00,
2013-08-14 16:36:00,68.0,51.3,30.06,WNW,294,0.0,5.0,55,0.00,,,0.00,WUHU216DAVISVP2,2013-08-14 20:36:00,
2013-08-14 16:42:00,68.3,51.1,30.06,West,269,0.0,5.0,54,0.00,,,0.00,WUHU216DAVISVP2,2013-08-14 20:42:00,
2013-08-14 16:47:00,68.6,51.3,30.05,WSW,257,4.0,6.0,54,0.00,,,0.00,WUHU216DAVISVP2,2013-08-14 20:47:00,
2013-08-14 16:52:00,69.0,52.6,30.05,ENE,59,7.0,9.0,56,0.00,,,0.00,WUHU216DAVISVP2,2013-08-14 20:52:00,
2013-08-14 16:57:00,68.7,51.4,30.05,North,359,3.0,9.0,54,0.00,,,0.00,WUHU216DAVISVP2,2013-08-14 20:57:00,
2013-08-14 17:02:00,68.5,50.3,30.05,WNW,302,0.0,9.0,52,0.00,,,0.00,WUHU216DAVISVP2,2013-08-14 21:02:00,
2013-08-14 17:07:00,68.6,51.9,30.06,NW,311,1.0,8.0,55,0.00,,,0.00,WUHU216DAVISVP2,2013-08-14 21:07:00,
2013-08-14 17:12:00,68.6,51.4,30.06,NNW,348,2.0,7.0,54,0.00,,,0.00,WUHU216DAVISVP2,2013-08-14 21:12:00,
2013-08-14 17:17:00,68.6,50.9,30.06,WNW,288,2.0,6.0,53,0.00,,,0.00,WUHU216DAVISVP2,2013-08-14 21:17:00,
2013-08-14 17:22:00,68.4,48.0,30.06,West,266,0.0,5.0,48,0.00,,,0.00,WUHU216DAVISVP2,2013-08-14 21:22:00,
2013-08-14 17:27:00,68.1,49.4,30.06,WSW,256,2.0,4.0,51,0.00,,,0.00,WUHU216DAVISVP2,2013-08-14 21:27:00,
2013-08-14 17:32:00,67.9,48.6,30.06,WSW,239,0.0,4.0,50,0.00,,,0.00,WUHU216DAVISVP2,2013-08-14 21:32:00,
2013-08-14 17:37:00,68.3,50.1,30.06,WNW,286,0.0,4.0,52,0.00,,,0.00,WUHU216DAVISVP2,2013-08-14 21:37:00,
2013-08-14 17:42:00,68.4,48.5,30.06,SSW,213,0.0,3.0,49,0.00,,,0.00,WUHU216DAVISVP2,2013-08-14 21:42:00,
2013-08-14 17:47:00,68.3,50.1,30.06,NW,321,0.0,3.0,52,0.00,,,0.00,WUHU216DAVISVP2,2013-08-14 21:47:00,
2013-08-14 17:53:00,68.2,50.5,30.06,WNW,288,0.0,3.0,53,0.00,,,0.00,WUHU216DAVISVP2,2013-08-14 21:53:00,
2013-08-14 17:57:00,67.9,49.7,30.06,WNW,288,1.0,3.0,52,0.00,,,0.00,WUHU216DAVISVP2,2013-08-14 21:57:00,
2013-08-14 18:02:00,67.5,49.9,30.06,NE,45,1.0,3.0,53,0.00,,,0.00,WUHU216DAVISVP2,2013-08-14 22:02:00,
2013-08-14 18:07:00,67.2,50.1,30.06,NNW,338,0.0,3.0,54,0.00,,,0.00,WUHU216DAVISVP2,2013-08-14 22:07:00,
2013-08-14 18:12:00,67.1,51.0,30.06,NNE,15,0.0,2.0,56,0.00,,,0.00,WUHU216DAVISVP2,2013-08-14 22:12:00,
2013-08-14 18:17:00,67.2,50.5,30.05,NNW,345,1.0,2.0,55,0.00,,,0.00,WUHU216DAVISVP2,2013-08-14 22:17:00,
2013-08-14 18:22:00,67.5,49.9,30.05,West,263,1.0,3.0,53,0.00,,,0.00,WUHU216DAVISVP2,2013-08-14 22:22:00,
2013-08-14 18:28:00,68.0,51.8,30.05,West,264,2.0,3.0,56,0.00,,,0.00,WUHU216DAVISVP2,2013-08-14 22:28:00,
2013-08-14 18:33:00,68.3,48.9,30.05,West,264,2.0,5.0,50,0.00,,,0.00,WUHU216DAVISVP2,2013-08-14 22:33:00,
2013-08-14 18:38:00,68.6,49.8,30.05,West,271,1.0,5.0,51,0.00,,,0.00,WUHU216DAVISVP2,2013-08-14 22:38:00,
2013-08-14 18:43:00,68.6,49.3,30.05,West,269,1.0,5.0,50,0.00,,,0.00,WUHU216DAVISVP2,2013-08-14 22:43:00,
2013-08-14 18:48:00,67.7,48.4,30.05,West,267,1.0,5.0,50,0.00,,,0.00,WUHU216DAVISVP2,2013-08-14 22:48:00,
2013-08-14 18:53:00,67.3,49.1,30.05,West,280,1.0,4.0,52,0.00,,,0.00,WUHU216DAVISVP2,2013-08-14 22:53:00,
2013-08-14 18:58:00,67.3,48.0,30.05,West,263,0.0,4.0,50,0.00,,,0.00,WUHU216DAVISVP2,2013-08-14 22:58:00,
2013-08-14 19:04:00,67.5,49.3,30.05,West,262,1.0,3.0,52,0.00,,,0.00,WUHU216DAVISVP2,2013-08-14 23:04:00,
2013-08-14 19:09:00,67.4,48.7,30.05,WNW,290,0.0,3.0,51,0.00,,,0.00,WUHU216DAVISVP2,2013-08-14 23:09:00,
2013-08-14 19:14:00,67.3,49.1,30.04,West,274,1.0,3.0,52,0.00,,,0.00,WUHU216DAVISVP2,2013-08-14 23:14:00,
2013-08-14 19:19:00,67.1,49.5,30.05,West,280,0.0,3.0,53,0.00,,,0.00,WUHU216DAVISVP2,2013-08-14 23:19:00,
2013-08-14 19:24:00,66.9,50.3,30.05,West,279,0.0,2.0,55,0.00,,,0.00,WUHU216DAVISVP2,2013-08-14 23:24:00,
2013-08-14 19:29:00,66.7,50.1,30.05,NW,304,1.0,2.0,55,0.00,,,0.00,WUHU216DAVISVP2,2013-08-14 23:29:00,
2013-08-14 19:34:00,66.6,49.5,30.04,West,276,0.0,2.0,54,0.00,,,0.00,WUHU216DAVISVP2,2013-08-14 23:34:00,
2013-08-14 19:39:00,66.1,49.9,30.04,West,276,0.0,2.0,56,0.00,,,0.00,WUHU216DAVISVP2,2013-08-14 23:39:00,
2013-08-14 19:44:00,65.6,49.5,30.04,West,277,0.0,2.0,56,0.00,,,0.00,WUHU216DAVISVP2,2013-08-14 23:44:00,
2013-08-14 19:49:00,65.1,50.1,30.04,West,277,0.0,2.0,58,0.00,,,0.00,WUHU216DAVISVP2,2013-08-14 23:49:00,
2013-08-14 19:54:00,64.7,50.2,30.04,West,276,0.0,1.0,59,0.00,,,0.00,WUHU216DAVISVP2,2013-08-14 23:54:00,
2013-08-14 19:59:00,64.4,50.2,30.04,West,276,0.0,1.0,60,0.00,,,0.00,WUHU216DAVISVP2,2013-08-14 23:59:00,
2013-08-14 20:04:00,64.1,50.1,30.04,West,277,0.0,1.0,60,0.00,,,0.00,WUHU216DAVISVP2,2013-08-15 00:04:00,
2013-08-14 20:09:00,63.8,50.2,30.04,West,276,0.0,1.0,61,0.00,,,0.00,WUHU216DAVISVP2,2013-08-15 00:09:00,
2013-08-14 20:14:00,63.6,50.5,30.05,West,276,0.0,0.0,62,0.00,,,0.00,WUHU216DAVISVP2,2013-08-15 00:14:00,
2013-08-14 20:19:00,63.4,50.3,30.05,West,277,0.0,1.0,62,0.00,,,0.00,WUHU216DAVISVP2,2013-08-15 00:19:00,
2013-08-14 20:24:00,63.1,50.7,30.05,West,277,0.0,1.0,64,0.00,,,0.00,WUHU216DAVISVP2,2013-08-15 00:24:00,
2013-08-14 20:29:00,63.0,50.6,30.05,West,271,1.0,1.0,64,0.00,,,0.00,WUHU216DAVISVP2,2013-08-15 00:29:00,
2013-08-14 20:34:00,62.8,51.4,30.05,West,271,0.0,1.0,66,0.00,,,0.00,WUHU216DAVISVP2,2013-08-15 00:34:00,
2013-08-14 20:39:00,62.5,51.5,30.05,West,271,0.0,1.0,67,0.00,,,0.00,WUHU216DAVISVP2,2013-08-15 00:39:00,
2013-08-14 20:44:00,62.3,52.1,30.05,West,271,0.0,1.0,69,0.00,,,0.00,WUHU216DAVISVP2,2013-08-15 00:44:00,
2013-08-14 20:49:00,62.0,52.2,30.05,West,271,0.0,1.0,70,0.00,,,0.00,WUHU216DAVISVP2,2013-08-15 00:49:00,
2013-08-14 20:54:00,61.6,52.2,30.05,West,271,0.0,1.0,71,0.00,,,0.00,WUHU216DAVISVP2,2013-08-15 00:54:00,
2013-08-14 20:59:00,61.3,52.3,30.05,West,271,0.0,1.0,72,0.00,,,0.00,WUHU216DAVISVP2,2013-08-15 00:59:00,
2013-08-14 21:04:00,61.1,52.1,30.05,West,271,1.0,1.0,72,0.00,,,0.00,WUHU216DAVISVP2,2013-08-15 01:04:00,
2013-08-14 21:09:00,61.0,52.0,30.05,West,271,1.0,1.0,72,0.00,,,0.00,WUHU216DAVISVP2,2013-08-15 01:09:00,
2013-08-14 21:14:00,60.8,52.2,30.06,West,271,0.0,1.0,73,0.00,,,0.00,WUHU216DAVISVP2,2013-08-15 01:14:00,
2013-08-14 21:19:00,60.4,52.2,30.06,West,271,0.0,1.0,74,0.00,,,0.00,WUHU216DAVISVP2,2013-08-15 01:19:00,
2013-08-14 21:24:00,60.3,52.1,30.06,West,271,0.0,1.0,74,0.00,,,0.00,WUHU216DAVISVP2,2013-08-15 01:24:00,
2013-08-14 21:29:00,60.1,51.8,30.06,West,271,0.0,1.0,74,0.00,,,0.00,WUHU216DAVISVP2,2013-08-15 01:29:00,
2013-08-14 21:34:00,59.9,52.0,30.06,West,271,0.0,1.0,75,0.00,,,0.00,WUHU216DAVISVP2,2013-08-15 01:34:00,
2013-08-14 21:39:00,59.8,51.9,30.06,West,271,0.0,1.0,75,0.00,,,0.00,WUHU216DAVISVP2,2013-08-15 01:39:00,
2013-08-14 21:44:00,59.7,52.2,30.06,West,271,0.0,1.0,76,0.00,,,0.00,WUHU216DAVISVP2,2013-08-15 01:44:00,
2013-08-14 21:49:00,59.5,52.0,30.06,West,271,0.0,1.0,76,0.00,,,0.00,WUHU216DAVISVP2,2013-08-15 01:49:00,
2013-08-14 21:54:00,59.3,51.8,30.06,West,271,0.0,1.0,76,0.00,,,0.00,WUHU216DAVISVP2,2013-08-15 01:54:00,
2013-08-14 21:59:00,59.1,52.0,30.07,West,271,0.0,1.0,77,0.00,,,0.00,WUHU216DAVISVP2,2013-08-15 01:59:00,
2013-08-14 22:04:00,59.1,51.6,30.07,West,269,1.0,1.0,76,0.00,,,0.00,WUHU216DAVISVP2,2013-08-15 02:04:00,
2013-08-14 22:09:00,59.4,51.9,30.07,WSW,257,0.0,1.0,76,0.00,,,0.00,WUHU216DAVISVP2,2013-08-15 02:09:00,
2013-08-14 22:14:00,59.3,51.8,30.07,WSW,257,1.0,1.0,76,0.00,,,0.00,WUHU216DAVISVP2,2013-08-15 02:14:00,
2013-08-14 22:19:00,59.2,51.7,30.07,West,259,0.0,1.0,76,0.00,,,0.00,WUHU216DAVISVP2,2013-08-15 02:19:00,
2013-08-14 22:24:00,59.1,51.6,30.06,West,259,0.0,1.0,76,0.00,,,0.00,WUHU216DAVISVP2,2013-08-15 02:24:00,
2013-08-14 22:29:00,59.1,51.6,30.07,West,262,1.0,1.0,76,0.00,,,0.00,WUHU216DAVISVP2,2013-08-15 02:29:00,
2013-08-14 22:34:00,59.0,51.9,30.07,West,274,0.0,1.0,77,0.00,,,0.00,WUHU216DAVISVP2,2013-08-15 02:34:00,
2013-08-14 22:39:00,58.8,51.7,30.07,West,269,0.0,1.0,77,0.00,,,0.00,WUHU216DAVISVP2,2013-08-15 02:39:00,
2013-08-14 22:44:00,59.0,51.9,30.07,West,264,1.0,1.0,77,0.00,,,0.00,WUHU216DAVISVP2,2013-08-15 02:44:00,
2013-08-14 22:49:00,59.0,51.9,30.07,WSW,256,1.0,1.0,77,0.00,,,0.00,WUHU216DAVISVP2,2013-08-15 02:49:00,
2013-08-14 22:54:00,58.8,51.7,30.06,WSW,255,0.0,1.0,77,0.00,,,0.00,WUHU216DAVISVP2,2013-08-15 02:54:00,
2013-08-14 22:59:00,58.5,51.7,30.06,WSW,256,0.0,1.0,78,0.00,,,0.00,WUHU216DAVISVP2,2013-08-15 02:59:00,
2013-08-14 23:04:00,58.2,51.4,30.06,West,262,1.0,1.0,78,0.00,,,0.00,WUHU216DAVISVP2,2013-08-15 03:04:00,
2013-08-14 23:09:00,58.1,51.7,30.06,West,264,0.0,1.0,79,0.00,,,0.00,WUHU216DAVISVP2,2013-08-15 03:09:00,
2013-08-14 23:14:00,58.0,51.6,30.07,West,264,0.0,1.0,79,0.00,,,0.00,WUHU216DAVISVP2,2013-08-15 03:14:00,
2013-08-14 23:19:00,57.9,51.5,30.07,West,264,0.0,1.0,79,0.00,,,0.00,WUHU216DAVISVP2,2013-08-15 03:19:00,
2013-08-14 23:24:00,57.6,51.2,30.06,West,264,0.0,1.0,79,0.00,,,0.00,WUHU216DAVISVP2,2013-08-15 03:24:00,
2013-08-14 23:29:00,57.3,51.2,30.06,West,264,0.0,1.0,80,0.00,,,0.00,WUHU216DAVISVP2,2013-08-15 03:29:00,
2013-08-14 23:34:00,57.0,51.3,30.06,West,264,0.0,1.0,81,0.00,,,0.00,WUHU216DAVISVP2,2013-08-15 03:34:00,
2013-08-14 23:39:00,56.6,51.2,30.06,West,264,0.0,1.0,82,0.00,,,0.00,WUHU216DAVISVP2,2013-08-15 03:39:00,
2013-08-14 23:44:00,56.3,51.2,30.06,West,264,0.0,1.0,83,0.00,,,0.00,WUHU216DAVISVP2,2013-08-15 03:44:00,
2013-08-14 23:49:00,56.2,51.1,30.06,West,264,0.0,1.0,83,0.00,,,0.00,WUHU216DAVISVP2,2013-08-15 03:49:00,
2013-08-14 23:54:00,56.4,51.3,30.07,West,264,0.0,1.0,83,0.00,,,0.00,WUHU216DAVISVP2,2013-08-15 03:54:00,
2013-08-14 23:59:00,56.7,51.3,30.07,West,270,1.0,1.0,82,0.00,,,0.00,WUHU216DAVISVP2,2013-08-15 03:59:00,